Torna al catalogo

DELTA 1 DEB

AttivoUNKNOWN
NORAD 13536·DEBRIS·🇺🇸 United States

Lanciato Jul 29, 1976 da Vandenberg Space Force Base

Loading…

Prossimi Passaggi (prossime 24 ore)

TLE

AggiornatoSource: Space-Track

Epoca: Sep 12, 2026, 13:40 UTC

1 13536U 76077EJ  26255.57002527 -.00000142  00000-0 -13669-2 0  9999
2 13536 101.7911 156.7053 0420069 262.9395 220.4105 11.75920550 68322

Traccia DELTA 1 DEB in tempo reale con AllMySat

Download on the App Store